Regional Weather Roundup
Issued by NWS Upton, NY

Current Version | Previous Version | Text Only | Print | Product List | Glossary Off
Versions: 1 2 3 4 5 6 7 8 9 10 11 12 13 14 15 16 17 18 19 20 21 22 23 24 25 26 27 28 29 30 31 32 33 34 35 36 37 38 39 40 41 42 43 44 45 46 47 48 49 50
000 ASUS41 KOKX 071508 RWROKX REGIONAL WEATHER ROUNDUP NATIONAL WEATHER SERVICE NEW YORK NY 1100 AM EDT TUE JUL 07 2015 NOTE: "FAIR" INDICATES FEW OR NO CLOUDS BELOW 12,000 FEET WITH NO SIGNIFICANT WEATHER AND/OR OBSTRUCTIONS TO VISIBILITY. NYZ071-072-176-178-NJZ106-104-071600- NEW YORK CITY METRO AREA CITY SKY/WX TMP DP RH WIND PRES REMARKS CENTRAL PARK PTSUNNY 83 72 69 VRB5 30.05F LAGUARDIA APRT PTSUNNY 84 71 65 S14 30.02F KENNEDY INTL MOSUNNY 82 73 74 S15 30.06S NEWARK/LIBERTY PTSUNNY 84 71 65 SW7 30.02F BRNX BOT. GARD N/A 79 72 78 SW3 30.02F TETERBORO PTSUNNY 82 71 69 S8 30.01F $$ NYZ177-179-078>081-071600- LONG ISLAND NEW YORK CITY SKY/WX TMP DP RH WIND PRES REMARKS FARMINGDALE CLOUDY 80 73 79 S12 30.05F ISLIP CLOUDY 78 73 84 S10 30.04F SHIRLEY CLOUDY 76 73 91 S9 30.07F WESTHAMPTON CLOUDY 77 74 90 S7 30.09S MONTAUK POINT N/A 75 71 87 VRB5 30.11S $$ NYZ052-065-067-071600- HUDSON VALLEY CITY SKY/WX TMP DP RH WIND PRES REMARKS WHITE PLAINS PTSUNNY 77 73 87 CALM 30.04F NEWBURGH PTSUNNY 79 72 78 VRB6 30.04F MONTGOMERY PTSUNNY 81 72 74 SW8 30.02F POUGHKEEPSIE PTSUNNY 82 70 66 SE8 30.01F ALBANY CLOUDY 78 69 73 S14 29.99F $$ NJZ001-105-106-008-010-013-015-019>022-104-071600- NEW JERSEY CITY SKY/WX TMP DP RH WIND PRES REMARKS NEWARK/LIBERTY PTSUNNY 84 71 65 SW7 30.02F TETERBORO PTSUNNY 82 71 69 S8 30.01F CALDWELL MOSUNNY 82 69 64 SW7 30.03F MORRISTOWN PTSUNNY 86 75 70 SW9 30.03F HX 95 SOMERVILLE MOSUNNY 82 72 71 MISG 30.02F SUSSEX MOSUNNY 80 70 71 S6 30.02F ANDOVER N/A 79 71 76 SW8 30.04F TRENTON MOSUNNY 81 71 71 SW6 30.04S MILLVILLE PTSUNNY 82 74 76 W7 30.05F ATLANTIC CITY MOSUNNY 85 72 65 S9 30.05 HX 91 WRIGHTSTOWN MOSUNNY 84 73 69 SW7 30.01F HX 91 TOMS RIVER PTSUNNY 84 72 65 SW7 30.04F BELMAR MOSUNNY 82 70 65 SW9 30.05S $$ PAZ047>061-062-071-071600- EASTERN PENNSYLVANIA CITY SKY/WX TMP DP RH WIND PRES REMARKS PHILADELPHIA MOSUNNY 81 71 71 SW9 30.04F ALLENTOWN PTSUNNY 82 71 69 S7 30.03S SCRANTON CLOUDY 79 69 71 SW9 30.03S $$ CTZ002-004>006-009-010-012-RIZ004-006-007-MAZ004-011-015-071600- SOUTHERN NEW ENGLAND IN CT CITY SKY/WX TMP DP RH WIND PRES REMARKS BRADLEY INTL CLOUDY 79 70 74 S9 30.05F HARTFORD PTSUNNY 81 72 74 S14G23 30.05F DANBURY LGT RAIN 78 72 81 VRB6 30.06F WTRBRY/OXFORD CLOUDY 77 70 78 S9G18 30.09F BRIDGEPORT MOSUNNY 80 74 81 SE8 30.04F MERIDEN CLOUDY 79 71 76 S10 30.05F NEW HAVEN PTSUNNY 78 72 81 SE9 30.06F CHESTER CLOUDY 75 72 88 S7 30.09F GROTON CLOUDY 73 71 93 SE12 30.08F FOG WILLIMANTIC CLOUDY 78 70 76 S8 30.08F IN RI CITY SKY/WX TMP DP RH WIND PRES REMARKS PROVIDENCE PTSUNNY 77 71 82 SE12 30.10S BLOCK ISLAND CLOUDY 75 72 88 S10 30.11S WESTERLY CLOUDY 74 72 93 S9 30.11S IN MA CITY SKY/WX TMP DP RH WIND PRES REMARKS BOSTON PTSUNNY 76 70 82 E8 30.09F WORCESTER CLOUDY 75 68 78 S9 30.12S WESTFIELD CLOUDY 73 69 87 S3 30.06F PROVINCETOWN SUNNY 79 68 69 S13G18 30.12S NANTUCKET MOSUNNY 73 68 84 S13 30.13R $$ ANZ330-335-338-340-345-350-353-355-071600- COASTAL MARINE OBSERVATIONS STATION/POSITION TIME SKY/WX TEMP WIND PRES VSBY WAVE AIR SEA DIR/SP/G HT/PER (UTC) (F) (DEG/KT/KT) (MB) (MI) (FT/S) NY HARB ENTRANCE 1450 74 73 190/ 12/ 14 1016.9 2/ 3 4S FIRE IS 1403 69 N/A 2/ 8 20S FIRE ISLAND 1450 72 71 200/ 10/ 12 1017.8 2/ 4 GREAT SOUTH BAY 1415 74 76 220/ 8/ 10 N/A 23SW MTP 1450 71 69 170/ 10/ 12 1018.6 2/ 5 HUDSON CANYON NOT AVBL KINGS POINT 1400 77 70 200/ 8/ 11 1016.6 CENTRAL LI SOUND NOT AVBL EASTERN LI SOUND 1400 68 65 140/ 8/ 8 N/A ROBBINS REEF 1400 76 160/ 11/ 12 1016.0 $$ >>>>>>>>>>>>>>>>>>>>>>>>>>>> KEY <<<<<<<<<<<<<<<<<<<<<<<<<<< > < > SKY/WX - SKY CONDITION/PRESENT WEATHER < > TMP - TEMPERATURE IN FAHRENHEIT < > DP - DEWPOINT IN FAHRENHEIT < > RH - RELATIVE HUMIDITY IN PERCENT < > WIND - DIRECTION AND SPEED IN MPH < > PRES - MEAN SEA LEVEL PRESSURE IN INCHES OF HG < > WCI - WIND CHILL INDEX < > VSB - VISIBILITY IN MILES < > HX - HEAT INDEX < > TC - TEMPERATURE IN CELSIUS < > VRB - VARIABLE WIND DIRECTION < > < >>>>>>>>>>>>>>>>>>>>>>>>>>>> KEY <<<<<<<<<<<<<<<<<<<<<<<<<<<

USA.gov is the U.S. government's official web portal to all federal, state and local government web resources and services.